Home   Weather   Bad Homburg   Past weeks

Flag for Germany Past Weather in Bad Homburg, Hesse, Germany — Yesterday and Last 2 Weeks

Now
30 °F

Ice fog.


Feels Like: 30 °F
Forecast: 29 / 41 °F
Wind: 2 mph from North

Location: Frankfurt-M-Flughafen Airport

Current Time: Dec 9, 2016 at 4:58:00 am

Latest Report: Dec 9, 2016 at 4:20 am


Visibility: 3 mi

Pressure: 30.45 "Hg

Humidity: 93%

Dew Point: 28 °F

Location of Bad HomburgLocation

Past Weather in Bad Homburg — Graph

°F

Bad Homburg Temperature Yesterday

Maximum temperature yesterday: 32 °F (at 3:20 pm)
Minimum temperature yesterday: 30 °F (at 12:20 am)
Average temperature yesterday: 30 °F

High & Low Weather Summary for the Past Weeks

 TemperatureHumidityPressure
High57 °F (Nov 24, 1:50 pm)100% (Nov 27, 4:20 am)30.60 "Hg (Nov 27, 4:20 am)
Low18 °F (Nov 30, 8:20 am)48% (Nov 28, 2:20 pm)30.01 "Hg (Nov 24, 3:20 am)
Average35 °F83%30.32 "Hg
* Reported Nov 24 3:20 am — Dec 9 3:50 am, Bad Homburg, Weather by CustomWeather, © 2016

Note: Actual official high and low records may vary slightly from our data, if they occured in-between our weather recording intervals... More about our weather records

Advertising

Bad Homburg Weather History for the Previous 24 Hours

Scroll right to see more
 ConditionsComfort  
Time TempWeatherWind HumidityBarometerVisibility
3:50 am
Fri, Dec 9
30 °FIce fog.3 mph93%30.42 "Hg2 mi
3:20 am30 °FIce fog.5 mph93%30.45 "Hg2 mi
2:50 am28 °FIce fog.5 mph100%30.45 "Hg1 mi
2:20 am28 °FIce fog.6 mph100%30.45 "Hg1 mi
1:50 am30 °FSleet. Overcast.7 mph93%30.45 "Hg1 mi
1:20 am30 °FIce fog.7 mph93%30.45 "Hg1 mi
12:50 am30 °FIce fog.7 mph93%30.45 "Hg1 mi
12:20 am30 °FIce fog.5 mph93%30.45 "Hg1 mi
11:50 pm
Thu, Dec 8
30 °FIce fog.5 mph93%30.45 "Hg1 mi
11:20 pm30 °FIce fog.6 mph100%30.45 "Hg1 mi
10:50 pm30 °FIce fog.6 mph93%30.45 "Hg1 mi
10:20 pm30 °FIce fog.6 mph100%30.45 "Hg1 mi
9:50 pm30 °FChilly.8 mph100%30.48 "Hg1 mi
9:20 pm30 °FChilly.6 mph100%30.48 "Hg1 mi
8:50 pm32 °FIce fog.6 mph93%30.48 "Hg1 mi
8:20 pm30 °FIce fog.6 mph100%30.45 "Hg1 mi
7:50 pm32 °FIce fog.6 mph93%30.48 "Hg1 mi
7:20 pm32 °FIce fog.6 mph93%30.48 "Hg2 mi
6:50 pm32 °FIce fog.6 mph93%30.48 "Hg2 mi
6:20 pm32 °FIce fog.6 mph93%30.45 "Hg2 mi
5:50 pm30 °FIce fog.7 mph100%30.48 "Hg1 mi
5:20 pm30 °FIce fog.5 mph100%30.45 "Hg1 mi
4:50 pm30 °FIce fog.6 mph100%30.48 "Hg1 mi
4:20 pm32 °FIce fog.8 mph93%30.48 "Hg1 mi
3:50 pm32 °FIce fog.6 mph93%30.48 "Hg1 mi
3:20 pm32 °FIce fog.5 mph93%30.48 "Hg1 mi
2:50 pm30 °FIce fog.6 mph100%30.48 "Hg1 mi
2:20 pm30 °FIce fog.7 mph100%30.48 "Hg1 mi
1:50 pm30 °FIce fog.6 mph100%30.48 "Hg1 mi
1:20 pm30 °FIce fog.7 mph100%30.48 "Hg1 mi
12:50 pm30 °FIce fog.7 mph100%30.51 "Hg1 mi
12:20 pm30 °FIce fog.7 mph100%30.51 "Hg0 mi
11:50 am30 °FIce fog.7 mph100%30.51 "Hg0 mi
11:20 am30 °FIce fog.8 mph100%30.54 "Hg1 mi
10:50 am30 °FChilly.8 mph100%30.54 "Hg1 mi
10:20 am30 °FIce fog.8 mph100%30.57 "Hg1 mi
9:50 am30 °FIce fog.6 mph100%30.57 "Hg1 mi
9:20 am30 °FIce fog.5 mph100%30.57 "Hg0 mi
8:50 am30 °FIce fog.6 mph100%30.57 "Hg0 mi
8:20 am30 °FIce fog.3 mph100%30.57 "Hg1 mi
7:50 am30 °FIce fog.9 mph100%30.54 "Hg1 mi
7:20 am30 °FIce fog.9 mph93%30.54 "Hg1 mi
6:50 am30 °FIce fog.7 mph93%30.54 "Hg1 mi
6:20 am30 °FIce fog.8 mph100%30.54 "Hg0 mi
5:50 am30 °FIce fog.8 mph93%30.54 "Hg1 mi
5:20 am30 °FIce fog.7 mph93%30.54 "Hg0 mi
4:50 am30 °FIce fog.5 mph93%30.54 "Hg0 mi
4:20 am30 °FSnow flurries. Ice fog.7 mph100%30.54 "Hg0 mi
Weather by CustomWeather, © 2016

See weather overviewHow to use our weather pages